Weather History for Paris, TX

Change the Weather History Date:

Thursday, October 18, 2012

  Actual Average Record
Temperature  
Mean Temperature 60 °F -  
Max Temperature 73 °F 72 °F 93 °F (2005)
Min Temperature 48 °F 53 °F 42 °F (1996)
Degree Days  
Heating Degree Days 4    
Growing Degree Days 10 (Base 50)    
Moisture  
Dew Point 34 °F    
Average Humidity 41    
Maximum Humidity 71    
Minimum Humidity 18    
Precipitation  
Precipitation 0.00 in - - ()
Sea Level Pressure  
Sea Level Pressure 29.93 in    
Wind  
Wind Speed 10 mph (NW)    
Max Wind Speed 20 mph    
Max Gust Speed 29 mph    
Visibility 10 miles    
Events      
Averages and records for this station are not official NWS values.
T = Trace of Precipitation, MM = Missing Value Source: NWS Daily Summary

Daily Weather History Graph

Daily Weather History Graph

Search for Another Location

Airport:

Trip Planner

Search our weather history database for the weather conditions in past years. The results will help you decide how hot, cold, wet, or windy it might be!

Date:

Astronomy

Oct. 18, 2012 Rise Set
Actual Time 7:29 AM CDT 6:43 PM CDT
Civil Twilight 7:04 AM CDT 7:08 PM CDT
Nautical Twilight 6:35 AM CDT 7:37 PM CDT
Astronomical Twilight 6:06 AM CDT 8:06 PM CDT
Moon 11:02 AM CDT (10/18) 9:29 PM CDT (10/18)
Length of Visible Light 12h 04m
Length of Day
11h 14m
Waxing Crescent, 14% of the Moon is Illuminated
Oct 18
Waxing Crescent
Oct 21
First Quarter
Oct 29
Full
Nov 6
Last Quarter
Nov 13
New

Hourly Weather History & Observations

Time (CDT) Temp. Dew Point Humidity Pressure Visibility Wind Dir Wind Speed Gust Speed Precip Events Conditions
12:15 AM 59.0 °F 48.2 °F 67% 29.82 in 10.0 mi WNW 8.1 mph - N/A   Clear
12:35 AM 60.8 °F 48.2 °F 63% 29.83 in 10.0 mi NW 11.5 mph - N/A   Clear
12:55 AM 62.6 °F 46.4 °F 55% 29.85 in 10.0 mi NNW 13.8 mph 19.6 mph N/A   Clear
1:15 AM 62.6 °F 42.8 °F 48% 29.84 in 10.0 mi North 17.3 mph - N/A   Clear
1:35 AM 60.8 °F 41.0 °F 48% 29.84 in 10.0 mi North 11.5 mph - N/A   Clear
1:55 AM 59.0 °F 39.2 °F 48% 29.85 in 10.0 mi North 9.2 mph - N/A   Clear
2:15 AM 57.2 °F 39.2 °F 51% 29.86 in 10.0 mi North 6.9 mph - N/A   Clear
2:35 AM 57.2 °F 39.2 °F 51% 29.87 in 10.0 mi NNW 5.8 mph - N/A   Clear
2:55 AM 55.4 °F 39.2 °F 54% 29.87 in 10.0 mi NNW 8.1 mph - N/A   Clear
3:15 AM 53.6 °F 41.0 °F 62% 29.87 in 10.0 mi North 9.2 mph - N/A   Clear
3:35 AM 53.6 °F 41.0 °F 62% 29.86 in 10.0 mi North 10.4 mph - N/A   Clear
3:55 AM 53.6 °F 39.2 °F 58% 29.86 in 10.0 mi North 9.2 mph - N/A   Clear
4:15 AM 51.8 °F 39.2 °F 62% 29.86 in 10.0 mi North 9.2 mph - N/A   Clear
4:35 AM 51.8 °F 39.2 °F 62% 29.87 in 10.0 mi North 6.9 mph - N/A   Clear
4:55 AM 51.8 °F 39.2 °F 62% 29.88 in 10.0 mi North 6.9 mph - N/A   Clear
5:15 AM 53.6 °F 39.2 °F 58% 29.89 in 10.0 mi NNW 3.5 mph - N/A   Clear
5:35 AM 53.6 °F 39.2 °F 58% 29.89 in 10.0 mi NNW 3.5 mph - N/A   Clear
5:55 AM 51.8 °F 39.2 °F 62% 29.91 in 10.0 mi NNW 4.6 mph - N/A   Clear
6:35 AM 50.0 °F 39.2 °F 66% 29.92 in 10.0 mi NW 5.8 mph - N/A   Clear
6:55 AM 50.0 °F 39.2 °F 66% 29.93 in 10.0 mi NNW 5.8 mph - N/A   Clear
7:15 AM 48.2 °F 39.2 °F 71% 29.94 in 10.0 mi NNW 5.8 mph - N/A   Clear
7:35 AM 50.0 °F 37.4 °F 62% 29.95 in 10.0 mi NNW 5.8 mph - N/A   Clear
7:55 AM 50.0 °F 37.4 °F 62% 29.95 in 10.0 mi NW 5.8 mph - N/A   Clear
8:15 AM 50.0 °F 39.2 °F 66% 29.95 in 10.0 mi NW 5.8 mph - N/A   Clear
8:35 AM 51.8 °F 42.8 °F 71% 29.96 in 10.0 mi NW 5.8 mph - N/A   Clear
8:55 AM 55.4 °F 42.8 °F 63% 29.97 in 10.0 mi NW 3.5 mph - N/A   Clear
9:15 AM 57.2 °F 39.2 °F 51% 29.98 in 10.0 mi NW 4.6 mph - N/A   Clear
9:35 AM 60.8 °F 39.2 °F 45% 29.99 in 10.0 mi NNW 8.1 mph - N/A   Clear
9:55 AM 62.6 °F 39.2 °F 42% 30.00 in 10.0 mi NNW 5.8 mph - N/A   Clear
10:15 AM 64.4 °F 37.4 °F 37% 30.00 in 10.0 mi NW 8.1 mph - N/A   Clear
10:35 AM 66.2 °F 35.6 °F 32% 30.00 in 10.0 mi NNW 16.1 mph 19.6 mph N/A   Clear
10:55 AM 68.0 °F 32.0 °F 26% 30.00 in 10.0 mi North 17.3 mph 21.9 mph N/A   Clear
11:15 AM 69.8 °F 28.4 °F 21% 30.00 in 10.0 mi NNW 18.4 mph 28.8 mph N/A   Clear
11:35 AM 69.8 °F 28.4 °F 21% 30.01 in 10.0 mi NNW 19.6 mph 26.5 mph N/A   Clear
11:55 AM 69.8 °F 28.4 °F 21% 30.01 in 10.0 mi NNW 16.1 mph 21.9 mph N/A   Clear
12:15 PM 69.8 °F 28.4 °F 21% 30.01 in 10.0 mi NNW 13.8 mph - N/A   Clear
12:35 PM 71.6 °F 28.4 °F 20% 30.00 in 10.0 mi NNW 13.8 mph 18.4 mph N/A   Clear
12:55 PM 71.6 °F 28.4 °F 20% 29.99 in 10.0 mi NW 18.4 mph 23.0 mph N/A   Clear
1:15 PM 71.6 °F 28.4 °F 20% 29.99 in 10.0 mi NW 13.8 mph 18.4 mph N/A   Clear
1:35 PM 71.6 °F 26.6 °F 19% 29.98 in 10.0 mi NW 16.1 mph - N/A   Clear
1:55 PM 71.6 °F 26.6 °F 19% 29.97 in 10.0 mi NW 16.1 mph 19.6 mph N/A   Clear
2:15 PM 71.6 °F 26.6 °F 19% 29.96 in 10.0 mi NW 9.2 mph - N/A   Clear
2:35 PM 71.6 °F 28.4 °F 20% 29.95 in 10.0 mi West 11.5 mph - N/A   Clear
2:55 PM 73.4 °F 28.4 °F 19% 29.95 in 10.0 mi WNW 16.1 mph 23.0 mph N/A   Clear
3:15 PM 73.4 °F 26.6 °F 18% 29.94 in 10.0 mi WNW 17.3 mph 23.0 mph N/A   Clear
3:35 PM 73.4 °F 28.4 °F 19% 29.94 in 10.0 mi WNW 13.8 mph 18.4 mph N/A   Clear
3:55 PM 73.4 °F 26.6 °F 18% 29.94 in 10.0 mi NW 15.0 mph 25.3 mph N/A   Clear
4:15 PM 73.4 °F 28.4 °F 19% 29.94 in 10.0 mi NW 11.5 mph 21.9 mph N/A   Clear
4:35 PM 73.4 °F 28.4 °F 19% 29.93 in 10.0 mi NW 13.8 mph 19.6 mph N/A   Clear
4:55 PM 71.6 °F 26.6 °F 19% 29.93 in 10.0 mi WNW 15.0 mph 21.9 mph N/A   Clear
5:15 PM 71.6 °F 26.6 °F 19% 29.93 in 10.0 mi WNW 15.0 mph 19.6 mph N/A   Clear
5:35 PM 71.6 °F 26.6 °F 19% 29.93 in 10.0 mi NW 15.0 mph 26.5 mph N/A   Clear
5:55 PM 69.8 °F 26.6 °F 20% 29.93 in 10.0 mi WNW 11.5 mph - N/A   Clear
6:15 PM 69.8 °F 26.6 °F 20% 29.93 in 10.0 mi WNW 11.5 mph - N/A   Clear
6:35 PM 66.2 °F 26.6 °F 23% 29.93 in 10.0 mi West 9.2 mph - N/A   Clear
6:55 PM 64.4 °F 28.4 °F 26% 29.93 in 10.0 mi West 6.9 mph - N/A   Clear
7:15 PM 62.6 °F 28.4 °F 27% 29.94 in 10.0 mi West 5.8 mph - N/A   Clear
7:35 PM 62.6 °F 30.2 °F 30% 29.94 in 10.0 mi West 6.9 mph - N/A   Clear
7:55 PM 60.8 °F 30.2 °F 31% 29.95 in 10.0 mi West 5.8 mph - N/A   Clear
8:15 PM 57.2 °F 30.2 °F 36% 29.95 in 10.0 mi West 8.1 mph - N/A   Clear
8:35 PM 57.2 °F 32.0 °F 38% 29.95 in 10.0 mi West 6.9 mph - N/A   Clear
8:55 PM 57.2 °F 32.0 °F 38% 29.95 in 10.0 mi West 6.9 mph - N/A   Clear
9:15 PM 57.2 °F 32.0 °F 38% 29.95 in 10.0 mi West 8.1 mph - N/A   Clear
9:35 PM 55.4 °F 33.8 °F 44% 29.96 in 10.0 mi West 8.1 mph - N/A   Clear
9:55 PM 55.4 °F 33.8 °F 44% 29.95 in 10.0 mi West 6.9 mph - N/A   Clear
10:15 PM 53.6 °F 33.8 °F 47% 29.95 in 10.0 mi West 8.1 mph - N/A   Clear
10:35 PM 53.6 °F 33.8 °F 47% 29.95 in 10.0 mi West 8.1 mph - N/A   Clear
10:55 PM 53.6 °F 33.8 °F 47% 29.95 in 10.0 mi WSW 8.1 mph - N/A   Clear
11:15 PM 51.8 °F 33.8 °F 50% 29.95 in 10.0 mi WSW 8.1 mph - N/A   Clear
11:35 PM 51.8 °F 33.8 °F 50% 29.95 in 10.0 mi WSW 8.1 mph - N/A   Clear
11:55 PM 51.8 °F 33.8 °F 50% 29.95 in 10.0 mi WSW 8.1 mph - N/A   Clear